Location: Bremen
(53.0793°N, 8.8017°E)
Time: 20:39:07
(UTC+02:00)

Envisat - Pass Details

Date: 29 February 2024
Orbit: 762 x 764 km, 98.3° (Epoch: 13 April)

Event Time Altitude Azimuth Distance (km) Brightness Sun altitude
Rises 05:16:15 0° 9° (N) 3,245 6.5 -18.3°
Reaches altitude 10° 05:18:48 10° 359° (N) 2,314 5.6 -18.0°
Maximum altitude 05:23:10 30° 300° (WNW) 1,357 3.9 -17.3°
Enters shadow 05:24:07 28° 280° (W) 1,416 3.8 -17.2°
